Regional Weather Roundup
Issued by NWS

Home | Current Version | Previous Version | Graphics & Text | Print | Product List | Glossary Off
Versions: 1 2 3 4 5 6 7 8 9 10 11 12 13 14 15 16 17 18 19 20 21 22 23 24 25 26 27 28 29 30 31 32 33 34 35 36 37 38 39 40 41 42 43 44 45 46 47 48 49 50

162
ASUS43 KTOP 241408
RWRKS

WEATHER ROUNDUP FOR KANSAS
NATIONAL WEATHER SERVICE GOODLAND KS
900 AM CDT SUN JUL 24 2016

NOTE:  "FAIR" INDICATES FEW OR NO CLOUDS BELOW 12,000 FEET WITH NO
SIGNIFICANT WEATHER AND/OR OBSTRUCTIONS TO VISIBILITY.

KSZ001>006-013>018-027>032-041>047-241500-
NORTHWEST KANSAS

CITY           SKY/WX    TMP DP  RH WIND       PRES   REMARKS
GOODLAND       CLOUDY    76  61  59 E15G22    30.08R
HAYS           CLOUDY    77  63  61 NE10      29.95R
HILL CITY      CLOUDY    74  67  78 NE12      29.98R
RUSSELL        PTSUNNY   78  69  73 E9        29.95R
$$

KSZ061>065-074>080-084>089-241500-
SOUTHWEST KANSAS

CITY           SKY/WX    TMP DP  RH WIND       PRES   REMARKS
DODGE CITY     CLOUDY    77  67  71 SW8       29.98R
ELKHART          N/A     78  62  57 NW7         N/A
GARDEN CITY    SUNNY     77  70  79 NE10      30.00R
GREAT BEND     CLOUDY    77  64  65 SE10      29.94R
LIBERAL        CLOUDY    79  64  61 CALM      30.02R
PRATT          CLOUDY    81  67  62 SW7       29.96R
$$

KSZ066>073-081>083-090>101-241500-
SOUTHEAST KANSAS

CITY           SKY/WX    TMP DP  RH WIND       PRES   REMARKS
CHANUTE        CLOUDY    80  73  79 S8        29.95S
COFFEYVILLE    SUNNY     83  73  72 S8        29.96R
HUTCHINSON     CLOUDY    82  69  64 SE5       29.95R
MEDICINE LODGE   N/A     85  65  51 S10       29.93S
NEWTON         PTSUNNY   82  70  66 S7        29.97R
PARSONS        LGT RAIN  84  74  71 S6        29.97S
WICHITA INTL   MOSUNNY   86  69  56 S13       29.95R
WICHITA JABRA  MOSUNNY   84  70  62 S12       29.95R
WICHITA MCCONL MOSUNNY   82  69  66 S9        29.95S
WINFIELD       CLOUDY    85  72  65 S7        29.96S
$$

KSZ007>012-019>026-033>040-048>060-102>105-241500-
NORTHEAST KANSAS

CITY           SKY/WX    TMP DP  RH WIND       PRES   REMARKS
CONCORDIA      LGT RAIN  75  69  81 NW5       29.96S
EMPORIA        MOSUNNY   87  70  56 SW13      29.93S
LAWRENCE       SUNNY     85  73  67 SW7       29.91R
MANHATTAN      LGT RAIN  77  71  82 SW10      29.90F
MARYSVILLE     MOSUNNY   82  72  69 NW6       29.94S
OLATHE IND     SUNNY     86  72  62 SW12      29.94R
OLATHE EXE     CLOUDY    82  71  69 SW5       29.93S
SALINA         CLOUDY    83  71  67 SE3       29.94R
TOPEKA BILLARD   N/A     84  70  62 SW6       29.91R
TOPEKA FORBES  MOSUNNY   85  72  65 SW7       29.92R
$$




USA.gov is the U.S. government's official web portal to all federal, state and local government web resources and services.